Preview of NWS' New Version of Forecast
This preview is not operational and should not be used for support decisions.

Regional Weather Roundup (RWR)

Issued by Philadelphia/Mt Holly (PHI)

                            
000
ASUS41 KPHI 241412
RWRPHI

REGIONAL WEATHER ROUNDUP
NATIONAL WEATHER SERVICE MOUNT HOLLY NJ
1000 AM EDT FRI MAY 24 2019

NOTE:  "FAIR" INDICATES FEW OR NO CLOUDS BELOW 12,000 FEET WITH NO
SIGNIFICANT WEATHER AND/OR OBSTRUCTIONS TO VISIBILITY.

 * = STATION DOES NOT REPORT PRECIPITATION (E.G. RAIN, SNOW, ETC.) 
        OR FOG.

NJZ015>026-241500-
SOUTHERN NEW JERSEY
  
CITY           SKY/WX    TMP DP  RH WIND       PRES   REMARKS
POMONA         FAIR      75  54  47 NW21G31   29.91F                  
WILDWOOD*      FAIR      75  56  51 NW16G24   29.95F                  
MILLVILLE      FAIR      74  50  42 W17G28    29.94F                  
WRIGHTSTOWN    FAIR      73  48  41 N17G26    29.89R                  
MOUNT HOLLY    FAIR      72  47  40 W15G26    29.93R                  
TRENTON        FAIR      70  47  43 NW18G29   29.92R                  

$$
NJZ001>014-241500-
NORTHERN NEW JERSEY
  
CITY           SKY/WX    TMP DP  RH WIND       PRES   REMARKS
SUSSEX         CLOUDY    65  50  58 NW8G20    29.93R                  
ANDOVER*         N/A     67  50  54 NW9G22    29.92S                  
MORRISTOWN     MOSUNNY   70  52  52 N16G24    29.90F                  
NEWARK         FAIR      72  48  42 W25G35    29.87F                  
TETERBORO      FAIR      70  49  47 NW22G32   29.86F                  
CALDWELL       FAIR      71  48  43 NW18G29   29.89S                  
SOMERVILLE     FAIR      71  49  45 NW17G26   29.89F                  
ALLAIRE*       FAIR      71  48  43 NW22G32   29.90R                  
TOMS RIVER*      N/A     73  50  44 W20G25    29.90S                  

$$
PAZ043-044-047-054-055-060>062-066>071-241500-
EASTERN PENNSYLVANIA
  
CITY           SKY/WX    TMP DP  RH WIND       PRES   REMARKS
PHILADELPHIA   FAIR      73  46  38 NW20G37   29.94F                  
NORTH PHILA    FAIR      74  46  36 NW17G29   29.95R                  
BLUE BELL*     FAIR      70  47  44 NW12G21   29.95R                  
DOYLESTOWN     FAIR      71  48  43 NW13G24   29.94R                  
QUAKERTOWN*    MOSUNNY   68  48  49 W13G20    29.97                   
PERKASIE*      FAIR      68  48  49 NW12G24   29.96R                  
POTTSTOWN      FAIR      69  48  47 NW10G22   29.97F                  
LANCASTER      FAIR      71  52  50 NW15      29.99S                  
COATESVILLE    FAIR      68  48  49 NW20      30.00S                  
READING        FAIR      70  51  51 NW20      29.97S                  
ALLENTOWN      FAIR      70  48  45 NW15G24   29.94F                  
QN CITY/ALNTWN FAIR      68  50  52 W7G16     29.97S                  
MOUNT POCONO   PTSUNNY   58  47  66 NW24G38   29.96R                  
HAZLETON       PTSUNNY   63  46  55 W7G16     30.02S                  
LEHIGHTON      FAIR      68  46  45 W9G17     29.96F                  
WILKES BARRE   CLOUDY    63  49  60 NW13G21   29.99R                  

$$
DEZALL-MDZ008-012-015-019-020-241500-
DELAWARE AND EASTERN MARYLAND
  
CITY           SKY/WX    TMP DP  RH WIND       PRES   REMARKS
WILMINGTON     FAIR      74  51  44 NW16G25   29.97F                  
DOVER          SUNNY     73  52  46 W14G24    29.97R                  
CHESWOLD         N/A     73  52  46 NW13      29.98S                  
GEORGETOWN     FAIR      76  56  49 NW13G24   29.98S                  
EASTON         SUNNY     75  54  46 NW13G23   30.05R                  
STEVENSVILLE   FAIR      73  55  53 NW16G22   30.02R                  
ABERDEEN       MOSUNNY   73  57  56 W12       30.01                   
PATUXENT       FAIR      78  58  49 NW16      30.01                   
OCEAN CITY     FAIR      77  60  55 NW13G20   29.97R                  
WALLOPS ISLAND FAIR      81  66  60 NW13G24   29.98R                  
CAMBRIDGE      SUNNY     75  54  46 NW17G25   30.00S                  
SALISBURY      FAIR      77  55  46 NW15G25   29.98S                  

$$
PAZ001-021-NYZ056-072-MDZ011-DCZ001-241500-
OTHER NEARBY LOCATIONS
  
CITY           SKY/WX    TMP DP  RH WIND       PRES   REMARKS
HARRISBURG     FAIR      70  50  49 NW16G24   30.00S                  
STATE COLLEGE  MOSUNNY   64  48  55 NW14      30.07S                  
WILLIAMSPORT   FAIR      68  47  46 NW15G22   29.99F                  
BINGHAMTON     CLOUDY    54  48  80 NW9       29.99R                  
NEW YORK CITY  FAIR      68  48  48 NW10G25   29.88F                  
BALTIMORE      FAIR      75  53  46 NW10      30.02R                  
WASHINGTON DC  FAIR      75  51  43 NW21G31   30.04S                  

$$